Regional Weather Roundup
Issued by NWS

Home | Current Version | Previous Version | Text Only | Print | Product List | Glossary On
Versions: 1 2 3 4 5 6 7 8 9 10 11 12 13 14 15 16 17 18 19 20 21 22 23 24 25 26 27 28 29 30 31 32 33 34 35 36 37 38 39 40 41 42 43 44 45 46 47 48 49 50
000
ASUS43 KMPX 010010
RWRMN
WEATHER ROUNDUP FOR MINNESOTA
NATIONAL WEATHER SERVICE TWIN CITIES/CHANHASSEN MN
700 PM CDT SUN APR 30 2017


NOTE: "FAIR" INDICATES FEW OR NO CLOUDS BELOW 12,000 FEET WITH NO
SIGNIFICANT WEATHER AND/OR OBSTRUCTIONS TO VISIBILITY. N/A MEANS
CURRENT SKY AND/OR WEATHER CONDITIONS ARE NOT AVAILABLE.

MNZ060>063-068>070-010100-
   Twin Cities Metro

CITY           SKY/WX    TMP DP  RH WIND       PRES   REMARKS
TWIN CITIES    LGT RAIN  47  34  60 NE20G29   29.75F
6HR MIN TEMP:  44; 6HR MAX TEMP:  49; 6HR PCP: TRACE;

ST PAUL        LGT RAIN  46  35  65 NE18G26   29.77F
CRYSTAL        LGT RAIN  46  31  55 NE20G30   29.76F
BLAINE         CLOUDY    46  36  66 NE18G25   29.78F
LAKEVILLE      LGT RAIN  43  37  81 NE21G29   29.69F
EDEN PRAIRIE   LGT RAIN  47  34  60 NE17G32   29.71F
6HR MIN TEMP:  44; 6HR MAX TEMP:  48; 6HR PCP: TRACE;

SOUTH ST PAUL  CLOUDY    46  34  61 NE20      29.74F
LAKE ELMO      CLOUDY    45  34  65 NE15G22   29.78F
$$
MNZ001>005-007-008-013>017-022>024-027-028-010100-
   Northwest Minnesota

CITY           SKY/WX    TMP DP  RH WIND       PRES   REMARKS
BEMIDJI        CLOUDY    54  23  30 E9        29.90F
HALLOCK        MOSUNNY   63  21  20 E13       29.91S
ROSEAU         MOSUNNY   55  27  33 NE15      29.94S
WARROAD        SUNNY     54  28  37 NE8       29.95F
THIEF RVR FALL MOSUNNY   58  20  22 E9        29.91F
CROOKSTON      MOSUNNY   59  23  25 E12       29.89F
FOSSTON        SUNNY     61  19  20 E12       29.89F
DETROIT LAKES  PTSUNNY   54  23  30 E14G20    29.88S
MOORHEAD       CLOUDY    57  21  24 E14       29.87S
PARK RAPIDS    CLOUDY    53  20  27 E9        29.88S
MAHNOMEN       FAIR      56  23  27 E17       29.87F
$$
MNZ006-009>011-018-025>026-010100-
   North Central Minnesota

CITY           SKY/WX    TMP DP  RH WIND       PRES   REMARKS
BAUDETTE       SUNNY     56  21  25 E9        29.93F
FLAG ISLAND    SUNNY     54  21  28 SE3       29.95S
INTL FALLS     MOSUNNY   54  22  28 E9        29.95F
6HR MIN TEMP:  52; 6HR MAX TEMP:  57;

WASKISH        PTSUNNY   57  25  28 E9G18     29.92F
BIG FORK       CLOUDY    54  19  26 E7        29.93S
LONGVILLE      CLOUDY    50  21  32 E7        29.90S
GRAND RAPIDS   CLOUDY    48  20  32 E9        29.93F
CRANE LAKE     CLOUDY    50  16  25 E3        29.98F
ORR            CLOUDY    52  14  22 E3        29.93S
COOK           CLOUDY    50  21  32 NE8       29.95S
WALKER         FAIR      50  26  40 E7        29.90S
$$
MNZ012-019>021-037-010100-
   Northeast Minnesota

CITY           SKY/WX    TMP DP  RH WIND       PRES   REMARKS
DULUTH         CLOUDY    40  22  48 E22G32    29.93F
6HR MIN TEMP:  40; 6HR MAX TEMP:  49;

ELY            PTSUNNY   46  21  36 E8        29.96F
HIBBING        CLOUDY    46  21  37 E12       29.93F
EVELETH        CLOUDY    46  13  26 E7        29.96S
DULUTH HARBOR  CLOUDY    39  36  87 NE18      29.97F
TWO HARBORS    CLOUDY    43  27  52 NE10G18   29.95F
SILVER BAY     PTSUNNY   41  28  60 NE12G17   29.97F
GRAND MARAIS     N/A     42  28  57 NE8       30.00F
G MARAIS ARPRT CLOUDY    41  10  28 NE14G23   29.99F
$$
MNZ029>031-032-039>041-046>048-054>057-064-010100-
   West Central Minnesota

CITY           SKY/WX    TMP DP  RH WIND       PRES   REMARKS
FERGUS FALLS   PTSUNNY   52  25  35 E13G20    29.85F
WHEATON        CLOUDY    52  21  30 NE15      29.86S
MORRIS         CLOUDY    48  28  46 E21G26    29.82S
ALEXANDRIA     CLOUDY    47  27  45 E15G24    29.84F
ELBOW LAKE     PTSUNNY   50  28  42 NE9       29.85S
WADENA         CLOUDY    50  25  37 E14G21    29.86S
GLENWOOD       DRIZZLE   43  36  75 NE18G24   29.83F
APPLETON       DRIZZLE   45  37  76 E15       29.81S
BENSON         RAIN      45  36  70 E14G22    29.83S
ORTONVILLE     LGT RAIN  46  34  61 E16G22    29.82F
MADISON        DRIZZLE   46  41  81 NE14      29.81S
WILLMAR        LGT RAIN  43  37  81 NE17G28   29.79F
$$
MNZ033>034-036-042>043-049>051-058-059-010100-
   Central Minnesota

CITY           SKY/WX    TMP DP  RH WIND       PRES   REMARKS
ST CLOUD       LGT RAIN  40  35  83 NE13G24   29.83F
6HR MIN TEMP:  40; 6HR MAX TEMP:  49; 6HR PCP:  0.06;

SAUK CENTRE    LGT RAIN  42  34  74 NE14      29.84F
PAYNESVILLE    RAIN      40  35  84 NE18G26   29.81F
AITKIN         CLOUDY    46  19  34 E14G20    29.89F
PINE RIVER     CLOUDY    48  27  43 E10G18    29.93S
BRAINERD       PTSUNNY   46  23  40 E16G23    29.88F
STAPLES        CLOUDY    48  21  34 NE12G20   29.87S
LONG PRAIRIE   CLOUDY    45  30  57 N15G24    29.85F
LITTLE FALLS   CLOUDY    45  25  45 E8        29.86F
LITCHFIELD     DRIZZLE   43  37  81 NE17G25   29.78F
BUFFALO        CLOUDY    44  34  68 N14G20    29.79F
MAPLE LAKE     DRIZZLE   42  38  83 NE18G24   29.81F
HUTCHINSON     RAIN      43  38  82 N20G26    29.73F
$$
MNZ037-044-045-052-053-010100-
   East Central Minnesota

CITY           SKY/WX    TMP DP  RH WIND       PRES   REMARKS
PRINCETON      LGT RAIN  43  36  75 N9G17     29.84F
MORA           RAIN      37  32  81 NE7       29.88F
CAMBRIDGE      LGT RAIN  46  34  61 N12G18    29.81F
RUSH CITY      LGT RAIN  45  28  51 NE12G18   29.85F
MOOSE LAKE     CLOUDY    43  23  45 NE13G25   29.89F
HINCKLEY       DRIZZLE   43  30  61 NE9G18    29.86F
CLOQUET        CLOUDY    41  19  42 E17G28    29.92F
MCGREGOR       CLOUDY    45  25  45 E12       29.92F
$$
MNZ071>073-080-081-089-090-097-098-010100-
   Southwest Minnesota

CITY           SKY/WX    TMP DP  RH WIND       PRES   REMARKS
MONTEVIDEO     RAIN      43  39  87 E16       29.79S
GRANITE FALLS  LGT RAIN  43  39  87 NE22      29.78F
CANBY          LGT RAIN  43  39  85 NE17G23   29.80S
MARSHALL       LGT RAIN  40  38  93 NE17      29.74F
REDWOOD FALLS  LGT RAIN  42  35  76 NE14G23   29.73F
OLIVIA         LGT RAIN  41  36  81 NE18G25   29.74F
PIPESTONE      RAIN      39  34  81 NE20G28   29.68S
WINDOM         LGT RAIN  39  37  93 NE23      29.66F
WORTHINGTON    LGT RAIN  38  37  97 NE29G36   29.63F FOG
JACKSON        LGT RAIN  37  37 100 NE24G30   29.62F
TRACY          LGT RAIN  40  38  91 NE23G29   29.72F
SLAYTON        LGT RAIN  37  36  95 NE20G26   29.68F
$$
MNZ065>067-074>077-082>085-091>093-010100-
   South Central Minnesota

CITY           SKY/WX    TMP DP  RH WIND       PRES   REMARKS
MANKATO        LGT RAIN  44  36  73 NE20      29.68F
NEW ULM        LGT RAIN  43  36  75 NE15G24   29.69F
ST JAMES       DRIZZLE   43  37  81 NE14G21   29.68F
FAIRMONT       LGT RAIN  42  38  85 NE23      29.61F
FARIBAULT      DRIZZLE   45  39  81 N7G20     29.69F
OWATONNA       CLOUDY    45  37  76 NE16G25   29.67R
WASECA         LGT RAIN  43  37  81 NE14      29.69R
ALBERT LEA     HVY RAIN  43  37  81 NE18G28   29.63F
$$
MNZ078>079-086>088-094>096-010100-
   Southeast Minnesota

CITY           SKY/WX    TMP DP  RH WIND       PRES   REMARKS
ROCHESTER      LGT RAIN  43  39  86 E23G36    29.66F
6HR MIN TEMP:  42; 6HR MAX TEMP:  43; 6HR PCP: TRACE;

RED WING       RAIN      48  36  61 E13G22    29.71F
STANTON        DRIZZLE   47  39  76 NE18G25   29.65F
DODGE CENTER   CLOUDY    43  39  87 NE20      29.65R
WINONA         CLOUDY    45  37  76 E18G26    29.72F
AUSTIN         CLOUDY    43  37  81 E21G32    29.62F
PRESTON        CLOUDY    41  36  83 NE21G28   29.65R
$$
ABBREVIATIONS USED IN REMARKS
   TC - TEMPERATURES IN CELSIUS
  WCI - WIND CHILL INDEX
   HX - HEAT INDEX
  VSB - VISIBILITY
$$



USA.gov is the U.S. government's official web portal to all federal, state and local government web resources and services.